Location: Ch�teau-Arnoux
(44.0814°N, 6.0027°E)
Time: 04:06:25
(UTC+00:00)

NOAA 6 - Pass Details

Date: 15 November 2019
Orbit: 771 x 788 km, 98.6° (Epoch: 11 December)

Event Time Altitude Azimuth Distance (km) Brightness Sun altitude
Rises 05:13:20 0° 14° (NNE) 3,266 7.3 -13.9°
Reaches altitude 10° 05:15:40 10° 16° (NNE) 2,332 6.5 -13.5°
Maximum altitude 05:20:49 81° 104° (ESE) 787 4.1 -12.6°
Drops below altitude 10° 05:25:55 10° 192° (SSW) 2,309 6.5 -11.7°
Sets 05:28:13 0° 193° (SSW) 3,231 7.3 -11.3°
